Flugwetter Augsburg

[source: ADDS]
METAR
EDMA 302150Z AUTO 11002KT 9999 // NCD M04/M09 Q1024 =
TAF EDMA 301700Z 3018/3103 VRB03KT CAVOK
TAF
TAF EDMA 301700Z 3018/3103 VRB03KT CAVOK =
Cookies erleichtern die Bereitstellung unserer Dienste. Mit der Nutzung unserer Dienste erklären Sie sich damit einverstanden, dass wir Cookies verwenden.
Weitere Informationen Ok